SCP
-0 -0 -0 0 -0 -0 -0 -0 0 -0 -0 0 0 0 0 0 0 0 0 0 0 -0 -0 -0 0 -0 -0 -0 0 0 0 -0 0 -0 -0 -0 -0 -0 -0 -0 -0 -0 -0 -0 -0 -0 -0 -0 -0
-0 -0 0 0 -0 -0 -0 -0 -0 0 0 0 0 0 0 0 0 0 0 -0 -0 -0 0 0 -0 -0 -0 -0 -0 -0 -0 -0 -0 -0 -0 -0 -0 -0 -0 -0 -0 -0 -0 -0 -0 -0 -0 -0 -0
-0 0 0 0 -0 -0 -0 -0 0 -0 0 0 0 0 0 0 0 0 0 0 0 0 -0 0 0 0 0 -0 0 0 0 -0 -0 -0 -0 -0 -0 -0 -0 -0 -0 -0 -0 -0 -0 -0 -0 -0 -0
0 0 0 -0 -0 -0 -0 -0 -0 0 0 0 0 0 0 0 0 0 0 0 0 0 0 0 0 0 0 0 0 0 0 0 -0 0 -0 -0 -0 -0 -0 -0 -0 -0 -0 -0 -0 -0 -0 -0 -0
0 0 0 -0 -0 0 0 -0 -0 0 -0 0 0 0 0 0 -0 0 0 0 0 0 0 0 0 0 0 0 0 0 0 0 0 0 -0 -0 -0 -0 -0 -0 -0 -0 -0 -0 -0 -0 -0 -0 -0
0 0 0 -0 0 0 0 -0 -0 -0 -0 -0 -0 0 0 0 0 0 -0 -0 0 0 0 0 0 0 0 0 0 0 0 0 0 -0 -0 -0 -0 -0 -0 -0 -0 -0 -0 -0 -0 -0 -0 -0 -0
0 0 0 0 0 0 0 -0 -0 -0 -0 0 -0 0 0 0 0 -0 -0 -0 -0 -0 -0 0 0 0 0 0 0 0 0 -0 -0 -0 -0 -0 -0 -0 -0 -0 -0 -0 -0 -0 -0 -0 -0 -0 -0
0 0 0 0 0 0 0 0 0 -0 0 0 0 0 0 0 -0 -0 -0 -0 -0 -0 -0 -0 0 -0 -0 -0 -0 -0 -0 -0 -0 -0 -0 -0 -0 -0 -0 0 -0 -0 -0 -0 -0 -0 -0 -0 -0
0 0 0 0 0 0 0 0 0 0 0 0 0 0 0 -0 -0 -0 -0 -0 -0 -0 -0 -0 -0 -0 -0 -0 -0 -0 -0 -0 -0 -0 -0 -0 -0 -0 0 0 -0 0 0 -0 -0 -0 -0 -0 -0
0 0 0 0 0 0 0 0 0 0 0 0 0 -0 -0 -0 -0 -0 -0 -0 -0 -0 -0 -0 -0 -0 -0 -0 -0 -0 -0 -0 -0 -0 -0 0 0 0 0 0 0 0 0 0 0 0 0 0 0
0 0 0 0 0 0 0 0 0 0 0 -0 -0 -0 -0 -0 -0 -0 -0 -0 -0 -0 -0 -0 -0 -0 -0 -0 -0 0 0 0 0 0 0 0 0 0 0 0 0 0 0 0 0 0 0 0 0
0 0 0 0 0 0 0 0 0 0 -0 0 -0 -0 -0 -0 -0 -0 -0 -0 -0 -0 -0 -0 -0 -0 -0 -0 -0 -0 -0 0 0 0 0 0 0 0 0 0 0 0 0 0 0 0 0 0 0
0 0 0 0 0 0 0 0 0 0 0 -0 0 0 -0 -0 -0 -0 -0 -0 -0 -0 -0 -0 -0 -0 -0 -0 -0 -0 -0 0 0 0 0 0 0 0 0 0 0 0 0 0 0 0 0 0 0
0 0 0 0 0 0 0 0 0 0 0 -0 0 0 0 -0 -0 0 0 0 -0 -0 -0 -0 -0 -0 -0 -0 -0 -0 -0 -0 0 0 0 0 0 0 0 0 0 0 0 0 0 0 0 0 0
0 0 0 0 0 0 0 0 0 0 0 0 -0 -0 0 -0 0 0 -0 0 0 0 0 -0 -0 -0 -0 -0 0 0 0 0 0 0 0 0 0 0 0 0 0 0 0 0 0 0 0 0 0
0 0 0 0 0 0 0 0 0 0 0 0 -0 -0 -0 0 0 0 0 0 0 0 0 0 0 0 0 0 0 0 0 0 0 0 0 0 0 0 0 0 0 0 0 0 0 0 0 0 0
0 0 0 0 0 0 0 0 0 0 0 0 0 0 0 0 0 0 0 0 0 0 0 0 0 0 0 0 0 0 0 0 0 0 0 0 0 0 0 0 0 0 0 0 0 0 0 0 0
0 0 0 0 0 0 0 0 0 0 0 0 0 0 0 0 0 0 0 0 0 0 0 0 0 0 0 0 0 0 0 0 0 0 0 0 0 0 0 0 0 0 0 0 0 0 0 0 0
0 0 0 0 0 0 0 0 0 0 0 0 0 0 0 0 0 0 0 0 0 0 0 0 0 0 0 0 0 0 0 0 0 0 0 0 0 0 0 0 0 0 0 0 0 0 0 0 0
0 0 0 0 0 0 0 0 0 0 0 0 0 0 0 0 0 0 0 0 0 0 0 0 0 0 0 0 0 0 0 0 0 0 0 0 0 0 0 0 0 0 0 0 0 0 0 0 0
0 0 0 0 0 0 0 0 0 0 0 0 0 0 0 0 0 0 0 0 0 0 0 0 0 0 0 0 0 0 0 0 0 0 0 0 0 0 0 0 0 0 0 0 0 0 0 0 0
0 0 0 0 0 0 0 0 0 0 0 0 0 0 0 0 0 0 0 0 0 0 0 0 0 0 0 0 0 0 0 0 0 0 0 0 0 0 0 0 0 0 0 0 0 0 0 0 0
0 0 0 0 0 0 0 0 0 0 0 0 0 0 0 0 0 0 0 0 0 0 0 0 0 0 0 0 0 0 0 0 0 0 0 0 0 0 0 0 0 0 0 0 0 0 0 0 0
0 0 0 0 0 0 0 0 0 0 0 0 0 0 0 0 0 0 0 0 0 0 0 0 0 0 0 0 0 0 0 0 0 0 0 0 0 0 0 0 0 0 0 0 0 0 0 0 0
0 0 0 0 0 0 0 0 0 0 0 0 0 0 0 0 0 0 0 0 0 0 0 0 0 0 0 0 0 0 0 0 0 0 0 0 0 0 0 0 0 0 0 0 0 0 0 0 0
0 0 0 0 0 0 0 0 0 0 0 0 0 0 0 0 0 0 0 0 0 0 0 0 0 0 0 0 0 0 0 0 0 0 0 0 0 0 0 0 0 0 0 0 0 0 0 0 0
0 0 0 0 0 0 0 0 0 0 0 0 0 0 0 0 0 0 0 0 0 0 0 0 0 0 0 0 0 0 0 0 0 0 0 0 0 0 0 0 0 0 0 0 0 0 0 0 0
0 0 0 0 0 0 0 0 0 0 0 0 0 0 0 0 0 0 0 0 0 0 0 0 0 0 0 0 0 0 0 0 0 0 0 0 0 0 0 0 0 0 0 0 0 0 0 0 0
0 0 0 0 0 0 0 0 0 0 0 0 0 0 0 0 0 0 0 0 0 0 0 0 0 0 0 0 0 0 0 0 0 0 0 0 0 0 0 0 0 0 0 0 0 0 0 0 0
0 0 0 0 0 0 0 0 0 0 0 0 0 0 0 0 0 0 0 0 0 0 0 0 0 0 0 0 0 0 0 0 0 0 0 0 0 0 0 0 0 0 0 0 0 0 0 0 0
Wind_Speed_500mb
15 12 13 9 7 8 2 4 2 6 4 5 21 10 9 7 6 3 25 42 46 45 40 37 22 20 22 19 17 17 17 20 29 23 18 17 20 24 26 28 32 34 33 33 33 31 29 27 25
13 10 8 4 7 5 5 4 11 8 5 20 18 16 7 3 6 14 44 42 47 44 42 33 27 20 22 20 18 15 18 20 29 27 18 12 17 21 25 26 27 34 34 31 32 32 29 29 27
12 9 3 7 6 7 6 8 9 5 27 7 6 5 9 10 8 35 36 47 48 44 39 32 28 22 21 20 18 16 16 19 28 28 17 10 17 23 23 22 24 31 32 30 28 28 28 28 27
13 8 9 7 5 5 5 8 12 17 5 4 5 7 8 10 21 29 43 49 50 42 37 31 26 22 19 17 16 14 15 16 22 25 16 11 16 19 19 18 16 19 29 26 25 25 26 26 27
16 6 7 5 4 3 5 8 25 9 6 5 7 6 8 14 23 28 44 52 49 41 37 31 27 23 21 18 18 16 16 16 19 21 14 9 10 15 14 13 12 16 25 21 21 24 24 25 26
7 7 7 5 3 3 2 17 18 10 8 7 4 13 8 21 26 29 43 52 46 41 38 32 28 24 22 20 18 17 16 15 15 16 11 7 7 11 11 10 8 12 22 24 25 23 21 21 24
10 7 8 9 6 2 7 21 14 14 12 8 7 8 9 26 30 26 45 48 46 38 34 32 29 26 22 19 17 15 14 13 13 11 9 8 7 9 9 8 7 10 16 18 14 16 16 19 21
11 11 8 4 8 5 13 18 6 13 9 10 17 7 7 32 32 33 48 47 46 40 34 31 31 29 25 21 18 16 15 13 12 11 9 7 6 8 9 8 7 10 16 15 13 14 15 15 17
10 8 6 13 12 7 15 9 9 11 7 16 17 9 8 37 34 41 53 55 50 44 39 35 33 31 28 25 21 18 17 14 12 11 8 6 5 7 8 7 7 8 11 13 13 12 13 12 11
8 7 17 12 10 9 21 14 18 10 10 12 16 18 13 39 39 47 61 65 61 54 48 42 39 36 33 29 26 23 20 17 14 11 8 5 5 5 6 6 7 6 9 10 10 11 10 9 6
6 9 10 8 6 12 21 8 15 12 6 22 25 25 23 40 42 44 53 58 58 54 50 47 43 40 38 35 31 29 25 22 18 15 13 10 7 5 4 5 5 5 7 8 9 9 8 6 4
9 4 11 13 10 14 17 16 9 20 9 5 10 17 28 38 44 43 46 51 55 52 48 45 44 45 43 39 38 34 32 28 26 22 19 14 12 9 7 9 7 6 5 7 8 8 7 5 4
7 7 6 10 15 13 16 4 8 23 27 26 13 18 28 35 36 38 37 40 46 48 47 45 45 45 46 45 42 43 39 35 31 29 25 22 19 16 13 12 9 9 8 7 7 9 8 6 6
10 14 10 6 5 5 6 3 4 8 14 32 35 25 26 35 37 41 43 42 46 47 49 46 45 42 41 40 41 42 42 40 38 35 31 28 26 24 21 18 14 13 11 9 10 9 4 3 2
17 10 6 2 5 3 2 9 18 32 23 17 25 32 30 30 40 45 40 40 40 44 48 51 48 46 46 44 40 40 35 31 39 38 37 36 33 31 29 26 22 15 14 11 9 9 7 8 12
9 11 7 4 7 2 6 16 9 7 17 28 31 24 36 34 37 40 45 47 45 47 50 51 52 53 54 51 50 46 43 37 33 39 41 41 37 37 35 34 31 28 26 25 20 24 23 20 22
13 8 7 5 4 4 6 12 7 3 3 8 17 25 28 29 36 40 42 45 48 49 51 55 57 59 58 58 58 58 54 51 44 38 40 39 39 41 42 41 39 37 37 38 37 36 35 39 35
11 6 2 6 4 1 4 20 15 31 24 21 22 25 26 30 29 26 31 39 47 54 54 55 59 61 62 62 64 66 65 63 59 52 46 42 44 44 44 45 45 48 48 46 46 50 50 48 45
15 8 8 5 2 5 10 15 22 43 33 41 47 49 46 40 36 38 37 39 44 49 58 60 62 61 66 68 72 74 73 71 70 64 56 53 51 50 50 48 48 51 52 54 54 54 57 55 57
9 9 8 2 4 4 8 22 19 27 34 45 43 44 44 48 47 47 50 52 54 54 56 58 61 64 66 68 67 73 71 75 71 70 67 61 63 61 59 59 58 58 62 62 63 64 58 64 64
6 12 8 6 2 5 8 15 13 8 18 34 39 37 39 44 45 27 20 24 32 43 61 64 64 64 64 65 67 71 72 74 72 72 73 70 64 65 68 66 69 59 63 68 69 70 74 73 73
11 14 11 8 7 7 5 9 13 10 20 14 25 14 17 22 29 28 26 24 27 32 34 55 64 65 62 64 70 72 72 75 71 70 69 69 64 65 69 62 61 65 69 70 69 75 79 80 82
7 13 12 7 7 4 6 4 14 7 14 10 7 15 21 21 6 10 9 3 3 11 22 25 34 53 57 60 64 68 74 75 72 70 67 62 61 59 56 58 60 65 70 68 73 68 73 80 99
18 14 14 10 5 3 9 9 10 8 9 5 1 11 22 12 13 15 15 13 10 8 3 7 14 26 40 49 56 62 67 71 73 73 72 70 65 61 58 53 57 62 64 68 74 71 75 72 75
5 12 5 3 4 10 6 4 16 11 12 9 14 20 14 13 10 11 11 9 7 4 2 1 4 10 20 31 40 45 49 54 59 61 62 63 64 62 58 56 53 57 60 64 63 65 68 69 75
14 13 11 15 8 6 5 12 12 5 3 14 13 2 9 13 17 15 12 8 6 6 4 3 2 3 6 11 16 22 28 32 36 40 44 48 50 50 47 49 50 59 60 63 65 65 71 72 75
12 10 10 15 6 6 8 12 21 1 9 8 9 15 19 20 20 19 15 11 9 7 7 5 4 5 6 5 3 5 9 15 21 26 31 36 40 43 45 48 51 56 59 61 65 68 74 71 77
8 16 7 5 6 7 8 9 11 9 14 8 9 20 23 24 23 22 21 20 17 16 16 13 11 11 14 14 12 9 3 2 8 14 20 26 31 35 39 41 43 48 53 57 61 67 71 73 78
5 6 9 9 8 11 3 11 13 12 16 18 15 16 19 24 25 26 26 27 26 24 23 23 24 24 22 19 17 13 9 4 3 8 13 17 22 26 30 34 39 44 49 54 58 63 68 72 76
2 11 12 9 9 4 6 15 4 5 20 26 16 13 15 21 22 22 23 22 22 24 23 20 16 12 12 8 6 9 15 17 18 20 23 27 30 34 37 39 42 44 47 52 57 61 65 71 75
Wind_Direction_500mb
284 300 313 322 57 66 149 232 256 133 152 166 138 145 180 124 168 191 149 158 160 158 153 152 143 138 131 114 110 113 120 128 115 107 92 87 80 84 95 97 92 94 97 94 97 102 107 109 109
258 259 284 58 89 83 251 232 180 185 149 134 117 124 119 111 136 148 151 159 162 163 159 155 144 139 117 109 98 101 104 117 122 118 117 93 81 79 99 99 98 99 99 102 92 92 94 97 99
218 205 231 90 109 164 196 205 158 124 135 135 124 109 130 137 151 153 158 160 164 167 161 154 145 138 124 120 115 109 114 120 130 128 135 101 88 82 96 101 102 101 104 100 96 92 87 91 93
189 152 64 87 197 215 181 168 138 130 214 172 154 106 116 142 157 164 163 166 164 168 163 155 149 144 132 123 119 118 112 110 121 130 140 116 83 88 95 103 99 92 109 103 96 86 88 92 91
180 144 71 87 221 269 244 148 148 131 144 180 177 193 132 146 162 165 169 171 170 172 172 165 160 155 147 142 141 132 125 117 122 134 148 133 75 82 90 100 100 102 113 103 91 90 90 90 91
158 115 78 191 223 297 166 152 147 142 141 175 187 147 134 156 159 165 171 171 173 173 173 173 170 167 159 155 149 139 127 121 123 135 135 114 72 76 85 102 98 87 114 107 108 88 93 96 90
144 89 175 158 147 34 146 153 152 159 153 212 177 137 165 168 163 172 174 173 175 181 183 181 181 177 170 165 155 149 140 136 138 143 129 110 93 91 96 113 104 94 114 119 106 87 96 79 85
142 93 121 190 171 194 160 157 179 160 184 177 179 212 189 177 169 170 176 178 182 187 192 193 192 189 184 179 173 168 162 158 152 151 139 124 112 100 105 120 120 107 120 114 118 104 94 88 92
137 72 159 182 157 192 161 163 174 166 172 180 198 200 156 174 173 171 177 185 190 196 201 203 204 202 197 194 190 186 185 182 174 165 153 133 111 109 117 123 111 110 110 113 119 105 97 89 83
95 110 204 188 180 177 173 180 173 159 188 217 209 217 185 179 184 183 185 190 197 203 206 210 209 210 209 207 204 204 204 203 197 189 184 178 166 150 142 137 120 115 109 111 117 115 105 93 76
123 163 177 186 175 166 159 180 170 163 199 224 220 215 200 184 190 197 199 202 202 204 210 211 214 215 218 217 217 217 218 218 217 215 214 210 201 187 174 150 142 135 116 115 126 128 120 109 90
101 118 151 142 132 143 160 154 188 213 225 224 235 220 215 198 199 203 206 207 209 212 213 214 218 217 221 223 227 228 228 228 228 227 227 229 225 215 208 184 167 166 153 145 144 139 128 104 64
103 144 121 132 131 126 145 179 232 240 239 250 257 227 220 218 217 212 214 213 214 214 215 218 220 221 222 227 231 234 235 236 235 233 232 231 228 223 220 207 190 187 176 165 160 150 134 111 75
142 122 121 132 124 117 158 202 254 241 242 246 245 235 223 224 226 218 215 217 220 220 220 221 221 220 220 227 232 237 241 239 239 236 236 237 233 229 226 220 208 194 189 171 165 165 170 183 113
120 87 54 45 133 46 145 289 236 243 260 261 242 231 228 226 227 229 231 228 228 230 228 229 230 230 231 233 238 240 244 244 243 242 238 239 237 234 230 226 221 223 221 216 232 219 266 270 265
73 58 114 307 153 136 145 261 283 221 258 256 246 242 236 232 237 236 234 236 234 234 235 235 235 236 238 240 243 246 249 252 254 245 245 239 241 241 239 234 235 234 238 230 239 244 251 260 268
15 173 173 310 226 111 166 262 285 243 287 272 240 241 243 239 234 239 238 241 241 239 239 240 240 241 242 244 247 250 252 254 255 253 248 244 243 243 245 241 239 241 243 243 237 239 248 247 251
177 164 158 215 227 64 223 264 278 276 283 277 270 259 258 261 247 245 246 246 245 243 241 242 243 244 245 246 248 250 251 252 253 253 250 249 248 247 243 250 248 245 244 245 249 252 252 257 258
129 128 137 265 269 189 230 268 274 286 281 267 266 268 270 266 267 262 257 254 250 243 239 238 239 240 241 240 242 245 248 250 252 254 252 250 250 251 249 250 255 256 257 255 252 254 257 261 261
110 118 184 175 16 163 356 286 263 266 265 267 266 268 269 272 267 269 274 262 252 247 242 240 241 240 240 242 244 246 249 252 255 256 257 254 250 251 252 255 259 262 258 255 253 253 254 259 260
114 151 201 166 78 68 343 296 313 299 270 270 268 276 276 277 277 267 261 259 255 248 240 237 238 240 241 242 243 243 246 249 250 251 255 258 255 252 252 256 255 255 257 263 263 260 254 255 256
162 197 155 138 94 224 35 281 299 310 298 276 302 317 322 292 267 263 252 269 248 242 238 236 235 236 238 240 241 243 245 246 250 253 256 259 263 262 264 260 268 261 256 259 264 263 266 255 257
188 128 133 100 100 77 330 88 271 337 281 306 42 57 24 22 85 147 155 155 327 255 240 243 241 237 238 239 242 245 247 251 252 254 254 256 262 264 263 259 267 275 258 266 264 267 268 269 258
153 82 53 59 100 313 221 154 276 213 217 233 189 12 9 42 76 96 93 79 70 71 118 222 236 236 236 238 241 245 248 250 252 252 254 258 261 263 266 266 265 264 270 270 274 269 274 272 269
71 100 45 357 355 224 6 143 245 243 238 223 292 327 19 51 78 90 96 88 80 71 60 172 230 232 231 237 242 245 251 254 257 258 260 263 265 268 270 270 270 269 271 271 274 274 275 275 276
193 159 157 190 194 247 53 231 249 223 285 277 259 194 88 81 85 89 84 73 53 38 7 342 288 245 216 217 229 238 245 248 253 257 261 262 267 271 271 269 265 265 267 269 269 271 272 273 271
193 190 159 107 21 53 217 282 300 163 53 120 138 124 106 102 94 90 85 81 70 60 51 36 48 69 81 98 136 208 229 237 244 251 255 259 263 267 267 264 259 255 259 263 264 264 264 267 270
160 154 83 12 134 247 273 269 227 191 188 153 109 99 105 106 107 106 102 90 76 70 68 74 80 90 90 90 92 93 93 267 275 274 271 270 267 268 267 266 266 266 263 262 262 261 264 262 265
138 170 62 121 148 172 226 255 221 210 169 164 150 107 110 116 110 103 94 88 83 83 88 89 96 93 88 77 72 65 58 47 310 283 279 278 280 278 276 275 272 269 269 268 267 267 267 267 268
72 184 152 147 210 233 154 257 307 228 155 152 139 115 115 124 115 104 95 90 89 90 99 102 92 92 93 70 21 339 324 320 313 308 302 298 294 290 286 283 283 280 275 271 268 268 268 269 271
Wind_Speed_850mb
15 12 13 9 7 8 2 4 2 6 4 5 21 10 9 7 6 3 25 42 46 45 40 37 22 20 22 19 17 17 17 20 29 23 18 17 20 24 26 28 32 34 33 33 33 31 29 27 25
13 10 8 4 7 5 5 4 11 8 5 20 18 16 7 3 6 14 44 42 47 44 42 33 27 20 22 20 18 15 18 20 29 27 18 12 17 21 25 26 27 34 34 31 32 32 29 29 27
12 9 3 7 6 7 6 8 9 5 27 7 6 5 9 10 8 35 36 47 48 44 39 32 28 22 21 20 18 16 16 19 28 28 17 10 17 23 23 22 24 31 32 30 28 28 28 28 27
13 8 9 7 5 5 5 8 12 17 5 4 5 7 8 10 21 29 43 49 50 42 37 31 26 22 19 17 16 14 15 16 22 25 16 11 16 19 19 18 16 19 29 26 25 25 26 26 27
16 6 7 5 4 3 5 8 25 9 6 5 7 6 8 14 23 28 44 52 49 41 37 31 27 23 21 18 18 16 16 16 19 21 14 9 10 15 14 13 12 16 25 21 21 24 24 25 26
7 7 7 5 3 3 2 17 18 10 8 7 4 13 8 21 26 29 43 52 46 41 38 32 28 24 22 20 18 17 16 15 15 16 11 7 7 11 11 10 8 12 22 24 25 23 21 21 24
10 7 8 9 6 2 7 21 14 14 12 8 7 8 9 26 30 26 45 48 46 38 34 32 29 26 22 19 17 15 14 13 13 11 9 8 7 9 9 8 7 10 16 18 14 16 16 19 21
11 11 8 4 8 5 13 18 6 13 9 10 17 7 7 32 32 33 48 47 46 40 34 31 31 29 25 21 18 16 15 13 12 11 9 7 6 8 9 8 7 10 16 15 13 14 15 15 17
10 8 6 13 12 7 15 9 9 11 7 16 17 9 8 37 34 41 53 55 50 44 39 35 33 31 28 25 21 18 17 14 12 11 8 6 5 7 8 7 7 8 11 13 13 12 13 12 11
8 7 17 12 10 9 21 14 18 10 10 12 16 18 13 39 39 47 61 65 61 54 48 42 39 36 33 29 26 23 20 17 14 11 8 5 5 5 6 6 7 6 9 10 10 11 10 9 6
6 9 10 8 6 12 21 8 15 12 6 22 25 25 23 40 42 44 53 58 58 54 50 47 43 40 38 35 31 29 25 22 18 15 13 10 7 5 4 5 5 5 7 8 9 9 8 6 4
9 4 11 13 10 14 17 16 9 20 9 5 10 17 28 38 44 43 46 51 55 52 48 45 44 45 43 39 38 34 32 28 26 22 19 14 12 9 7 9 7 6 5 7 8 8 7 5 4
7 7 6 10 15 13 16 4 8 23 27 26 13 18 28 35 36 38 37 40 46 48 47 45 45 45 46 45 42 43 39 35 31 29 25 22 19 16 13 12 9 9 8 7 7 9 8 6 6
10 14 10 6 5 5 6 3 4 8 14 32 35 25 26 35 37 41 43 42 46 47 49 46 45 42 41 40 41 42 42 40 38 35 31 28 26 24 21 18 14 13 11 9 10 9 4 3 2
17 10 6 2 5 3 2 9 18 32 23 17 25 32 30 30 40 45 40 40 40 44 48 51 48 46 46 44 40 40 35 31 39 38 37 36 33 31 29 26 22 15 14 11 9 9 7 8 12
9 11 7 4 7 2 6 16 9 7 17 28 31 24 36 34 37 40 45 47 45 47 50 51 52 53 54 51 50 46 43 37 33 39 41 41 37 37 35 34 31 28 26 25 20 24 23 20 22
13 8 7 5 4 4 6 12 7 3 3 8 17 25 28 29 36 40 42 45 48 49 51 55 57 59 58 58 58 58 54 51 44 38 40 39 39 41 42 41 39 37 37 38 37 36 35 39 35
11 6 2 6 4 1 4 20 15 31 24 21 22 25 26 30 29 26 31 39 47 54 54 55 59 61 62 62 64 66 65 63 59 52 46 42 44 44 44 45 45 48 48 46 46 50 50 48 45
15 8 8 5 2 5 10 15 22 43 33 41 47 49 46 40 36 38 37 39 44 49 58 60 62 61 66 68 72 74 73 71 70 64 56 53 51 50 50 48 48 51 52 54 54 54 57 55 57
9 9 8 2 4 4 8 22 19 27 34 45 43 44 44 48 47 47 50 52 54 54 56 58 61 64 66 68 67 73 71 75 71 70 67 61 63 61 59 59 58 58 62 62 63 64 58 64 64
6 12 8 6 2 5 8 15 13 8 18 34 39 37 39 44 45 27 20 24 32 43 61 64 64 64 64 65 67 71 72 74 72 72 73 70 64 65 68 66 69 59 63 68 69 70 74 73 73
11 14 11 8 7 7 5 9 13 10 20 14 25 14 17 22 29 28 26 24 27 32 34 55 64 65 62 64 70 72 72 75 71 70 69 69 64 65 69 62 61 65 69 70 69 75 79 80 82
7 13 12 7 7 4 6 4 14 7 14 10 7 15 21 21 6 10 9 3 3 11 22 25 34 53 57 60 64 68 74 75 72 70 67 62 61 59 56 58 60 65 70 68 73 68 73 80 99
18 14 14 10 5 3 9 9 10 8 9 5 1 11 22 12 13 15 15 13 10 8 3 7 14 26 40 49 56 62 67 71 73 73 72 70 65 61 58 53 57 62 64 68 74 71 75 72 75
5 12 5 3 4 10 6 4 16 11 12 9 14 20 14 13 10 11 11 9 7 4 2 1 4 10 20 31 40 45 49 54 59 61 62 63 64 62 58 56 53 57 60 64 63 65 68 69 75
14 13 11 15 8 6 5 12 12 5 3 14 13 2 9 13 17 15 12 8 6 6 4 3 2 3 6 11 16 22 28 32 36 40 44 48 50 50 47 49 50 59 60 63 65 65 71 72 75
12 10 10 15 6 6 8 12 21 1 9 8 9 15 19 20 20 19 15 11 9 7 7 5 4 5 6 5 3 5 9 15 21 26 31 36 40 43 45 48 51 56 59 61 65 68 74 71 77
8 16 7 5 6 7 8 9 11 9 14 8 9 20 23 24 23 22 21 20 17 16 16 13 11 11 14 14 12 9 3 2 8 14 20 26 31 35 39 41 43 48 53 57 61 67 71 73 78
5 6 9 9 8 11 3 11 13 12 16 18 15 16 19 24 25 26 26 27 26 24 23 23 24 24 22 19 17 13 9 4 3 8 13 17 22 26 30 34 39 44 49 54 58 63 68 72 76
2 11 12 9 9 4 6 15 4 5 20 26 16 13 15 21 22 22 23 22 22 24 23 20 16 12 12 8 6 9 15 17 18 20 23 27 30 34 37 39 42 44 47 52 57 61 65 71 75
Wind_Direction_850mb
284 300 313 322 57 66 149 232 256 133 152 166 138 145 180 124 168 191 149 158 160 158 153 152 143 138 131 114 110 113 120 128 115 107 92 87 80 84 95 97 92 94 97 94 97 102 107 109 109
258 259 284 58 89 83 251 232 180 185 149 134 117 124 119 111 136 148 151 159 162 163 159 155 144 139 117 109 98 101 104 117 122 118 117 93 81 79 99 99 98 99 99 102 92 92 94 97 99
218 205 231 90 109 164 196 205 158 124 135 135 124 109 130 137 151 153 158 160 164 167 161 154 145 138 124 120 115 109 114 120 130 128 135 101 88 82 96 101 102 101 104 100 96 92 87 91 93
189 152 64 87 197 215 181 168 138 130 214 172 154 106 116 142 157 164 163 166 164 168 163 155 149 144 132 123 119 118 112 110 121 130 140 116 83 88 95 103 99 92 109 103 96 86 88 92 91
180 144 71 87 221 269 244 148 148 131 144 180 177 193 132 146 162 165 169 171 170 172 172 165 160 155 147 142 141 132 125 117 122 134 148 133 75 82 90 100 100 102 113 103 91 90 90 90 91
158 115 78 191 223 297 166 152 147 142 141 175 187 147 134 156 159 165 171 171 173 173 173 173 170 167 159 155 149 139 127 121 123 135 135 114 72 76 85 102 98 87 114 107 108 88 93 96 90
144 89 175 158 147 34 146 153 152 159 153 212 177 137 165 168 163 172 174 173 175 181 183 181 181 177 170 165 155 149 140 136 138 143 129 110 93 91 96 113 104 94 114 119 106 87 96 79 85
142 93 121 190 171 194 160 157 179 160 184 177 179 212 189 177 169 170 176 178 182 187 192 193 192 189 184 179 173 168 162 158 152 151 139 124 112 100 105 120 120 107 120 114 118 104 94 88 92
137 72 159 182 157 192 161 163 174 166 172 180 198 200 156 174 173 171 177 185 190 196 201 203 204 202 197 194 190 186 185 182 174 165 153 133 111 109 117 123 111 110 110 113 119 105 97 89 83
95 110 204 188 180 177 173 180 173 159 188 217 209 217 185 179 184 183 185 190 197 203 206 210 209 210 209 207 204 204 204 203 197 189 184 178 166 150 142 137 120 115 109 111 117 115 105 93 76
123 163 177 186 175 166 159 180 170 163 199 224 220 215 200 184 190 197 199 202 202 204 210 211 214 215 218 217 217 217 218 218 217 215 214 210 201 187 174 150 142 135 116 115 126 128 120 109 90
101 118 151 142 132 143 160 154 188 213 225 224 235 220 215 198 199 203 206 207 209 212 213 214 218 217 221 223 227 228 228 228 228 227 227 229 225 215 208 184 167 166 153 145 144 139 128 104 64
103 144 121 132 131 126 145 179 232 240 239 250 257 227 220 218 217 212 214 213 214 214 215 218 220 221 222 227 231 234 235 236 235 233 232 231 228 223 220 207 190 187 176 165 160 150 134 111 75
142 122 121 132 124 117 158 202 254 241 242 246 245 235 223 224 226 218 215 217 220 220 220 221 221 220 220 227 232 237 241 239 239 236 236 237 233 229 226 220 208 194 189 171 165 165 170 183 113
120 87 54 45 133 46 145 289 236 243 260 261 242 231 228 226 227 229 231 228 228 230 228 229 230 230 231 233 238 240 244 244 243 242 238 239 237 234 230 226 221 223 221 216 232 219 266 270 265
73 58 114 307 153 136 145 261 283 221 258 256 246 242 236 232 237 236 234 236 234 234 235 235 235 236 238 240 243 246 249 252 254 245 245 239 241 241 239 234 235 234 238 230 239 244 251 260 268
15 173 173 310 226 111 166 262 285 243 287 272 240 241 243 239 234 239 238 241 241 239 239 240 240 241 242 244 247 250 252 254 255 253 248 244 243 243 245 241 239 241 243 243 237 239 248 247 251
177 164 158 215 227 64 223 264 278 276 283 277 270 259 258 261 247 245 246 246 245 243 241 242 243 244 245 246 248 250 251 252 253 253 250 249 248 247 243 250 248 245 244 245 249 252 252 257 258
129 128 137 265 269 189 230 268 274 286 281 267 266 268 270 266 267 262 257 254 250 243 239 238 239 240 241 240 242 245 248 250 252 254 252 250 250 251 249 250 255 256 257 255 252 254 257 261 261
110 118 184 175 16 163 356 286 263 266 265 267 266 268 269 272 267 269 274 262 252 247 242 240 241 240 240 242 244 246 249 252 255 256 257 254 250 251 252 255 259 262 258 255 253 253 254 259 260
114 151 201 166 78 68 343 296 313 299 270 270 268 276 276 277 277 267 261 259 255 248 240 237 238 240 241 242 243 243 246 249 250 251 255 258 255 252 252 256 255 255 257 263 263 260 254 255 256
162 197 155 138 94 224 35 281 299 310 298 276 302 317 322 292 267 263 252 269 248 242 238 236 235 236 238 240 241 243 245 246 250 253 256 259 263 262 264 260 268 261 256 259 264 263 266 255 257
188 128 133 100 100 77 330 88 271 337 281 306 42 57 24 22 85 147 155 155 327 255 240 243 241 237 238 239 242 245 247 251 252 254 254 256 262 264 263 259 267 275 258 266 264 267 268 269 258
153 82 53 59 100 313 221 154 276 213 217 233 189 12 9 42 76 96 93 79 70 71 118 222 236 236 236 238 241 245 248 250 252 252 254 258 261 263 266 266 265 264 270 270 274 269 274 272 269
71 100 45 357 355 224 6 143 245 243 238 223 292 327 19 51 78 90 96 88 80 71 60 172 230 232 231 237 242 245 251 254 257 258 260 263 265 268 270 270 270 269 271 271 274 274 275 275 276
193 159 157 190 194 247 53 231 249 223 285 277 259 194 88 81 85 89 84 73 53 38 7 342 288 245 216 217 229 238 245 248 253 257 261 262 267 271 271 269 265 265 267 269 269 271 272 273 271
193 190 159 107 21 53 217 282 300 163 53 120 138 124 106 102 94 90 85 81 70 60 51 36 48 69 81 98 136 208 229 237 244 251 255 259 263 267 267 264 259 255 259 263 264 264 264 267 270
160 154 83 12 134 247 273 269 227 191 188 153 109 99 105 106 107 106 102 90 76 70 68 74 80 90 90 90 92 93 93 267 275 274 271 270 267 268 267 266 266 266 263 262 262 261 264 262 265
138 170 62 121 148 172 226 255 221 210 169 164 150 107 110 116 110 103 94 88 83 83 88 89 96 93 88 77 72 65 58 47 310 283 279 278 280 278 276 275 272 269 269 268 267 267 267 267 268
72 184 152 147 210 233 154 257 307 228 155 152 139 115 115 124 115 104 95 90 89 90 99 102 92 92 93 70 21 339 324 320 313 308 302 298 294 290 286 283 283 280 275 271 268 268 268 269 271